TimeEET,TemperatureF,Dew PointF,Humidity,Sea Level PressureIn,VisibilityMPH,Wind Direction,Wind SpeedMPH,Gust SpeedMPH,PrecipitationIn,Events,Conditions,WindDirDegrees,DateUTC
12:50 AM,48.2,41.0,76,30.04,6.2,NNW,4.6,-,N/A,,Mostly Cloudy,340,2012-11-07 22:50:00
1:50 AM,46.4,41.0,81,30.04,6.2,Calm,Calm,-,N/A,,Mostly Cloudy,0,2012-11-07 23:50:00
2:00 AM,46,41,77,,6,Calm,Calm,,,,Partly Cloudy,,2012-11-08 00:00:00
2:50 AM,44.6,41.0,87,30.01,6.2,NNE,1.2,-,N/A,,Mostly Cloudy,20,2012-11-08 00:50:00
3:50 AM,42.8,39.2,87,30.04,6.2,West,1.2,-,N/A,,Mostly Cloudy,280,2012-11-08 01:50:00
4:50 AM,44.6,41.0,87,30.04,6.2,Calm,Calm,-,N/A,,Scattered Clouds,0,2012-11-08 02:50:00
5:50 AM,42.8,41.0,93,30.04,6.2,East,1.2,-,N/A,,Mostly Cloudy,80,2012-11-08 03:50:00
6:50 AM,42.8,41.0,93,30.04,6.2,Calm,Calm,-,N/A,,Mostly Cloudy,0,2012-11-08 04:50:00
7:50 AM,50.0,42.8,76,30.04,6.2,Variable,2.3,-,N/A,,Scattered Clouds,0,2012-11-08 05:50:00
8:00 AM,50,43,70,,6,WSW,2.3,,,,Partly Cloudy,240,2012-11-08 06:00:00
8:50 AM,59.0,42.8,55,30.01,6.2,Calm,Calm,-,N/A,,Scattered Clouds,0,2012-11-08 06:50:00
9:50 AM,62.6,42.8,48,30.01,6.2,Variable,1.2,-,N/A,,Scattered Clouds,0,2012-11-08 07:50:00
10:50 AM,66.2,42.8,43,29.98,6.2,Variable,1.2,-,N/A,,Scattered Clouds,0,2012-11-08 08:50:00
11:50 AM,66.2,37.4,35,29.98,6.2,SE,10.4,-,N/A,,Mostly Cloudy,140,2012-11-08 09:50:00
12:50 PM,68.0,37.4,33,29.95,6.2,Variable,2.3,-,N/A,,Mostly Cloudy,0,2012-11-08 10:50:00
1:50 PM,68.0,37.4,33,29.95,6.2,Variable,2.3,-,N/A,,Mostly Cloudy,0,2012-11-08 11:50:00
2:00 PM,67,37,22,,6,ENE,2.3,,,,Partly Cloudy,70,2012-11-08 12:00:00
2:50 PM,64.4,37.4,37,29.95,6.2,East,4.6,-,N/A,,Mostly Cloudy,100,2012-11-08 12:50:00
3:50 PM,62.6,39.2,42,29.95,6.2,Variable,4.6,-,N/A,,Mostly Cloudy,0,2012-11-08 13:50:00
4:50 PM,62.6,39.2,42,29.95,6.2,NE,4.6,-,N/A,,Mostly Cloudy,40,2012-11-08 14:50:00
5:50 PM,59.0,44.6,59,29.98,6.2,SE,12.7,-,N/A,Rain,Light Rain Showers,130,2012-11-08 15:50:00
6:50 PM,57.2,46.4,67,29.98,6.2,ESE,11.5,-,N/A,Rain,Light Rain Showers,110,2012-11-08 16:50:00
7:50 PM,55.4,48.2,77,30.01,6.2,ENE,3.5,-,N/A,Rain,Light Rain Showers,70,2012-11-08 17:50:00
8:00 PM,55,48,71,,6,ENE,3.5,,,Rain,Light Rain Showers,70,2012-11-08 18:00:00
8:50 PM,55.4,46.4,72,29.98,6.2,SSE,4.6,-,N/A,,Mostly Cloudy,150,2012-11-08 18:50:00
9:50 PM,55.4,46.4,72,29.98,6.2,SE,10.4,-,N/A,,Mostly Cloudy,140,2012-11-08 19:50:00
10:50 PM,57.2,44.6,63,29.98,6.2,SE,11.5,-,N/A,,Mostly Cloudy,130,2012-11-08 20:50:00
11:50 PM,57.2,44.6,63,29.98,6.2,SSE,8.1,-,N/A,,Mostly Cloudy,160,2012-11-08 21:50:00